EW5523 Weather Reports


Display with metric or nautical units.
time (UTC)temp
F
wind
direction
speed
MPH
gust
MPH
rain 1hr
in
rain 24hr
in
rain mn
in
humidity
%
barometer
mb
20180922060142 55 244 1.0 5.0 0.00 0.00 0.00 92 1017.1
20180922054611 54 220 2.0 6.0 0.00 0.00 0.00 93 1017.2
20180922053039 54 265 0.0 6.0 0.00 0.00 0.00 93 1017.4
20180922051535 53 242 1.0 5.0 0.00 0.00 0.00 93 1017.5
20180922050034 53 266 1.0 5.0 0.00 0.00 0.00 93 1017.4
20180922044527 52 259 0.0 3.0 0.00 0.00 0.00 93 1017.3
20180922043028 52 263 0.0 3.0 0.00 0.00 0.00 94 1017.1
20180922041542 51 264 0.0 4.0 0.00 0.00 0.00 93 1017.1
20180922040038 51 269 0.0 4.0 0.00 0.00 0.00 93 1017.0
20180922034536 51 272 0.0 3.0 0.00 0.00 0.00 93 1017.0
20180922033026 50 254 0.0 2.0 0.00 0.00 0.00 93 1016.9
20180922031514 50 252 1.0 4.0 0.00 0.00 0.00 93 1016.7
20180922030026 49 254 1.0 3.0 0.00 0.00 0.00 94 1016.9
20180922024511 49 252 0.0 1.0 0.00 0.00 0.00 93 1016.7
20180922023008 48 252 0.0 1.0 0.00 0.00 0.00 93 1016.8
20180922021522 48 252 0.0 0.0 0.00 0.00 0.00 91 1016.6
20180922020017 49 251 0.0 3.0 0.00 0.00 0.00 93 1016.7
20180922014513 47 241 0.0 1.0 0.00 0.00 0.00 92 1016.7
20180922013013 48 241 0.0 0.0 0.00 0.00 0.00 90 1016.5
20180922011506 49 241 0.0 3.0 0.00 0.00 0.00 91 1016.5
20180922010015 49 240 0.0 4.0 0.00 0.00 0.00 91 1016.5
20180922004504 49 238 1.0 3.0 0.00 0.00 0.00 91 1016.7
20180922003007 48 267 1.0 4.0 0.00 0.00 0.00 91 1016.6
20180922001502 48 269 0.0 5.0 0.00 0.00 0.00 91 1016.6
20180922000139 48 262 0.0 2.0 0.00 0.00 0.00 91 1016.4
20180921234622 47 261 0.0 4.0 0.00 0.00 0.00 91 1016.4
20180921233058 47 259 1.0 4.0 0.00 0.00 0.00 90 1016.4
20180921231603 46 281 1.0 5.0 0.00 0.00 0.00 91 1016.3
20180921230140 44 272 0.0 4.0 0.00 0.00 0.00 92 1016.2
20180921224609 44 274 0.0 0.0 0.00 0.00 0.00 89 1016.4
20180921223052 45 274 0.0 2.0 0.00 0.00 0.00 88 1016.4
20180921221633 46 273 0.0 0.0 0.00 0.00 0.00 86 1016.4
20180921220115 46 274 0.0 2.0 0.00 0.00 0.00 86 1016.5
20180921214552 46 272 1.0 4.0 0.00 0.00 0.00 88 1016.4
20180921213055 44 307 0.0 3.0 0.00 0.00 0.00 92 1016.3
20180921211642 43 322 0.0 0.0 0.00 0.00 0.00 87 1016.2
20180921210100 43 322 0.0 2.0 0.00 0.00 0.00 88 1016.1
20180921204612 44 323 0.0 2.0 0.00 0.00 0.00 91 1016.1
20180921203049 41 324 0.0 0.0 0.00 0.00 0.00 90 1016.1
20180921201552 41 324 0.0 0.0 0.00 0.00 0.00 89 1015.8
20180921200042 42 324 0.0 0.0 0.00 0.00 0.00 89 1015.7
20180921194547 42 324 0.0 0.0 0.00 0.00 0.00 88 1015.7
20180921193038 42 324 0.0 0.0 0.00 0.00 0.00 87 1015.7
20180921191545 42 324 0.0 0.0 0.00 0.00 0.00 87 1015.7
20180921190047 43 324 0.0 0.0 0.00 0.00 0.00 84 1015.7
20180921184555 44 324 0.0 0.0 0.00 0.00 0.00 83 1015.5
20180921183108 45 324 0.0 1.0 0.00 0.00 0.00 81 1015.6
20180921181537 45 324 0.0 0.0 0.00 0.00 0.00 80 1015.6
20180921180034 46 324 0.0 0.0 0.00 0.00 0.00 79 1015.6
20180921174556 46 324 0.0 0.0 0.00 0.00 0.00 78 1015.6
20180921173027 47 324 0.0 0.0 0.00 0.00 0.00 76 1015.5
20180921171547 49 324 0.0 0.0 0.00 0.00 0.00 71 1015.4
20180921170101 48 324 0.0 2.0 0.00 0.00 0.00 72 1015.3
20180921164528 48 324 0.0 0.0 0.00 0.00 0.00 72 1015.2
20180921163044 48 324 0.0 0.0 0.00 0.00 0.00 73 1015.1
20180921161524 48 324 0.0 0.0 0.00 0.00 0.00 74 1015.1
20180921160040 50 324 0.0 0.0 0.00 0.00 0.00 69 1014.9
20180921154541 50 324 0.0 1.0 0.00 0.00 0.00 69 1014.9
20180921153055 50 324 0.0 0.0 0.00 0.00 0.00 69 1014.6
20180921151541 51 324 0.0 0.0 0.00 0.00 0.00 66 1014.4
20180921150019 53 324 0.0 1.0 0.00 0.00 0.00 61 1014.5
20180921144520 54 324 0.0 0.0 0.00 0.00 0.00 60 1014.4
20180921143021 55 324 0.0 2.0 0.00 0.00 0.00 58 1014.4
20180921141559 55 324 0.0 3.0 0.00 0.00 0.00 57 1014.3
20180921140013 56 338 2.0 8.0 0.00 0.00 0.00 55 1014.2
20180921134535 58 280 2.0 5.0 0.00 0.00 0.00 53 1014.1
20180921133134 58 314 1.0 4.0 0.00 0.00 0.00 52 1013.9
20180921131606 58 324 4.0 8.0 0.00 0.00 0.00 51 1013.8
20180921124555 59 306 3.0 9.0 0.00 0.00 0.00 51 1013.6
20180921123102 59 290 3.0 9.0 0.00 0.00 0.00 51 1013.5
20180921121551 59 321 5.0 10.0 0.00 0.00 0.00 51 1013.3
20180921120041 59 339 5.0 10.0 0.00 0.00 0.00 48 1013.2
20180921114551 59 346 4.0 13.0 0.00 0.00 0.00 48 1013.1
20180921113102 59 290 6.0 12.0 0.00 0.00 0.00 50 1013.0
20180921111603 59 345 3.0 10.0 0.00 0.00 0.00 53 1012.9
20180921110041 59 293 2.0 8.0 0.00 0.00 0.00 54 1012.9
20180921104600 59 322 4.0 9.0 0.00 0.00 0.00 55 1013.1
20180921103041 59 12 4.0 10.0 0.00 0.00 0.00 57 1012.9
20180921101559 59 320 2.0 9.0 0.00 0.00 0.00 57 1012.9
20180921100029 59 301 3.0 9.0 0.00 0.00 0.00 57 1012.8
20180921094610 59 308 4.0 9.0 0.00 0.00 0.00 58 1012.7
20180921093055 58 287 5.0 10.0 0.00 0.00 0.00 59 1012.7
20180921091536 58 338 1.0 7.0 0.00 0.00 0.00 60 1012.6
20180921090035 58 316 3.0 11.0 0.00 0.00 0.00 59 1012.7
20180921083113 57 359 3.0 8.0 0.00 0.00 0.00 60 1012.7
20180921081635 57 324 3.0 10.0 0.00 0.00 0.00 62 1012.5
20180921080121 56 36 2.0 10.0 0.00 0.00 0.00 64 1012.4
20180921074555 56 301 5.0 12.0 0.00 0.00 0.00 64 1012.4
20180921073055 56 337 3.0 12.0 0.00 0.00 0.00 64 1012.4
20180921071631 55 354 4.0 10.0 0.00 0.00 0.00 65 1012.4
20180921070118 55 315 2.0 10.0 0.00 0.00 0.00 65 1012.4
20180921061515 53 347 2.0 9.0 0.00 0.00 0.00 71 1012.4